Location: Unspecified
(0.0000°N, 0.0000°E)
Time: 14:14:15
(UTC+00:00)

Altair - Pass Details

Date: 04 November 2021
Orbit: 1502 x 1682 km, 47.2° (Epoch: 26 November)

Event Time Altitude Azimuth Distance (km) Brightness Sun altitude
Rises 21:27:38 0° 237° (WSW) 4,701 10.6 -53.0°
Reaches altitude 10° 21:30:59 10° 245° (WSW) 3,696 9.9 -53.7°
Enters shadow 21:34:26 23° 259° (W) 2,785 9.1 -54.5°
Maximum altitude 21:39:22 39° 310° (NW) 2,129 - -55.6°
Drops below altitude 10° 21:47:40 10° 16° (NNE) 3,641 - -57.4°
Sets 21:50:59 0° 24° (NNE) 4,625 - -58.1°
